Terug naar catalogus

BREEZE-M R/B

ActiefMEO
NORAD 40278·ROCKET BODY·🇷🇺 Russia

Gelanceerd Oct 21, 2014 vanaf Baikonur Cosmodrome

Loading…

Volgende Passages (komende 24 uur)

TLE

VersSource: Space-Track

Epoch: Sep 14, 2026, 11:03 UTC

1 40278U 14064B   26257.46049537 -.00000138  00000-0  00000-0 0  9999
2 40278   9.5287  61.6886 0581720 220.0350 135.6591  0.95221888 41372

Volg BREEZE-M R/B in realtime met AllMySat

Download on the App Store